Overview Statistics Trail Chart Weather Telemetry Raw packets
 

This is the latest recevied weather packets stored in our database for station/object KC5TIL. If no packets are shown the sender has not sent any weather packets the latest 10 day(s).

<< 21 22 23 24 25 26 27 >>
Time Temp. Humidity Pressure Rain* Wind** Luminosity Snow
1788463990 32.22° C 65% 1013 hPa 0 mm - 488 W/m² -
1788463683 32.22° C 65% 1012.9 hPa 0 mm - 393 W/m² -
1788463379 32.22° C 65% 1012.9 hPa 0 mm - 344 W/m² -
1788463074 32.22° C 65% 1013 hPa 0 mm - 352 W/m² -
1788462765 31.67° C 66% 1013.2 hPa 0 mm - 340 W/m² -
1788462476 31.67° C 66% 1013.3 hPa 0 mm - 384 W/m² -
1788462159 31.67° C 67% 1013.2 hPa 0 mm - 288 W/m² -
1788461854 32.22° C 65% 1013.4 hPa 0 mm - 399 W/m² -
1788461548 31.67° C 67% 1013.6 hPa 0 mm - 433 W/m² -
1788461245 31.11° C 69% 1013.5 hPa 0 mm - 353 W/m² -
1788460941 31.11° C 71% 1013.6 hPa 0 mm - 354 W/m² -
1788460641 31.11° C 70% 1013.9 hPa 0 mm - 357 W/m² -
1788460335 31.67° C 71% 1013.9 hPa 0 mm - 439 W/m² -
1788460034 31.67° C 69% 1013.6 hPa 0 mm - 518 W/m² -
1788459729 31.67° C 69% 1014 hPa 0 mm - 328 W/m² -
1788459428 32.78° C 66% 1013.9 hPa 0 mm - 252 W/m² -
1788459123 33.89° C 60% 1013.9 hPa 0 mm - 466 W/m² -
1788458818 33.89° C 59% 1014 hPa 0 mm - 603 W/m² -
1788458512 33.89° C 60% 1014 hPa 0 mm - 941 W/m² -
1788458211 33.89° C 61% 1014 hPa 0 mm - 842 W/m² -
1788457911 33.89° C 61% 1014.2 hPa 0 mm - 653 W/m² -
1788457605 32.78° C 66% 1014.2 hPa 0 mm - 668 W/m² -
1788457300 32.22° C 66% 1014.2 hPa 0 mm - 347 W/m² -
1788456995 32.22° C 66% 1014.2 hPa 0 mm - 424 W/m² -
1788456692 32.22° C 65% 1014.5 hPa 0 mm - 357 W/m² -

* Rain latest hour (hover to see other rain measurements)
** Current wind speed in m/s (hover to see current wind gust speed)